Location: Friaudour
(46.0460°N, 1.2873°E)
Time: 20:08:11
(UTC+00:00)

Cosmos 921 Rocket - Pass Details

Date: 14 July 2020
Orbit: 572 x 631 km, 75.8° (Epoch: 14 August)

Event Time Altitude Azimuth Distance (km) Brightness Sun altitude
Rises 02:05:59 0° 343° (NNW) 2,900 7.2 -16.6°
Reaches altitude 10° 02:08:16 10° 345° (NNW) 1,981 6.3 -16.4°
Maximum altitude 02:12:41 69° 70° (ENE) 650 3.3 -16.0°
Drops below altitude 10° 02:16:58 10° 154° (SSE) 1,928 5.3 -15.6°
Enters shadow 02:17:11 - 154° (SSE) 2,017 5.4 -15.6°
